Wind_Speed
6 7 6 6 6 5 5 4 4 3 3 2 2 1 1 1 0 1 1 1 1 1 1 1 2 3 3 3 3 4 4 4 4 5 5 6 6 6 6 6 7 8 8
7 6 6 6 6 5 4 4 4 3 3 3 2 1 1 1 1 1 2 2 3 2 2 2 2 3 4 4 4 4 4 5 5 6 6 6 7 7 7 7 8 9 9
7 6 6 6 6 5 4 4 3 3 2 2 2 1 2 1 2 2 2 3 2 2 3 3 3 4 4 4 4 4 5 5 6 7 7 7 7 7 8 8 9 9 10
7 7 6 5 5 4 4 4 3 3 2 2 1 2 2 2 2 2 3 3 3 3 4 4 3 4 4 5 5 5 5 5 6 7 8 8 9 9 9 9 9 9 10
7 7 6 5 4 3 3 3 2 2 1 1 2 2 2 3 3 3 3 3 3 4 4 4 4 5 6 5 6 6 6 7 7 8 8 9 10 10 10 10 10 10 10
6 6 6 5 4 3 3 3 2 1 1 1 2 3 3 3 3 4 4 4 5 5 5 5 5 6 6 6 7 7 7 8 9 9 10 10 10 11 11 11 12 12 12
5 5 5 3 3 3 2 1 1 1 2 2 3 4 3 4 4 4 4 5 5 5 5 5 6 7 7 6 6 7 8 9 9 10 10 11 11 12 12 12 13 13 13
5 4 3 3 3 3 2 2 1 2 3 3 4 4 4 4 4 4 5 5 5 5 5 6 7 8 7 7 7 8 8 9 10 11 11 12 12 12 13 14 14 14 14
5 4 3 3 3 3 2 2 2 3 3 3 3 3 4 4 5 5 5 5 5 5 6 7 7 8 8 8 8 8 9 9 10 11 11 12 12 13 13 13 14 15 15
4 4 3 2 2 2 2 2 2 3 3 3 3 3 4 4 5 5 5 5 6 6 7 7 8 8 8 9 9 10 10 10 11 11 11 11 12 12 13 13 14 15 15
3 3 3 3 2 2 2 2 2 3 3 4 4 4 4 5 5 5 6 6 7 8 8 8 9 9 10 10 10 11 11 11 11 11 12 12 13 13 14 14 14 15 15
3 3 3 3 2 2 2 3 3 3 3 4 4 5 5 5 5 6 7 8 9 9 9 9 10 10 10 11 11 11 12 12 12 12 12 13 13 13 14 14 15 15 16
3 3 3 3 2 2 3 3 4 4 4 5 5 5 5 6 7 7 8 9 9 9 10 10 10 10 10 11 12 12 12 13 12 12 12 12 12 12 13 13 14 15 16
3 3 2 3 3 3 3 4 4 4 5 5 5 5 6 7 8 8 8 9 9 9 10 10 11 11 11 11 12 12 12 13 13 13 13 13 13 14 13 14 14 15 15
3 3 3 3 3 4 4 4 4 5 5 5 6 6 6 7 8 8 9 10 10 10 10 11 11 12 12 12 12 12 13 13 14 13 14 14 14 14 14 15 15 16 16
3 3 3 3 4 4 5 5 5 5 5 5 5 6 7 7 8 9 10 10 11 11 11 12 12 12 12 13 13 13 14 14 14 14 14 14 14 14 15 15 15 16 16
3 3 3 4 5 5 5 5 5 5 5 6 6 7 7 8 9 10 10 11 11 12 12 13 14 14 14 14 14 14 15 15 15 15 15 16 16 17 17 18 18 18 18
3 3 4 5 5 5 5 5 5 5 6 7 7 8 9 10 10 11 12 12 13 13 13 14 14 15 15 15 15 16 16 17 17 17 17 17 18 18 19 20 20 20 19
4 5 5 5 6 6 6 6 7 7 8 8 9 9 10 11 12 12 13 14 14 15 15 15 15 16 16 16 17 17 18 18 18 18 19 19 20 20 21 21 21 21 20
6 6 7 7 7 8 8 8 9 9 10 10 11 12 13 13 14 15 15 15 15 16 16 17 17 17 17 18 18 18 18 19 19 19 20 20 21 21 21 21 22 22 22
9 8 9 9 9 9 10 11 11 11 12 12 13 14 15 15 16 16 16 17 17 18 18 19 19 19 18 18 19 19 19 19 20 20 21 21 22 23 23 23 23 23 23
11 11 11 11 11 11 12 12 13 13 13 14 15 16 17 17 17 18 18 18 19 19 20 20 20 20 20 20 20 20 20 20 21 21 22 23 23 24 24 24 24 24 25
14 13 13 13 13 14 14 14 14 14 15 16 17 17 18 19 19 19 19 20 21 21 21 21 22 22 21 21 22 22 21 22 23 23 24 24 24 24 24 24 25 26 26
16 16 16 16 16 16 16 16 16 17 17 18 18 19 20 20 21 21 21 22 22 23 23 23 23 23 23 23 23 23 23 23 24 25 25 25 25 25 25 26 26 26 26
17 17 18 18 18 19 19 19 18 18 19 19 20 21 22 22 22 23 23 23 24 24 24 24 24 23 23 23 24 24 24 24 24 25 25 25 25 26 26 27 27 26 26
20 19 20 20 21 21 21 21 21 21 21 21 22 23 23 24 24 24 23 24 24 24 24 24 23 24 24 25 25 25 25 25 25 25 26 26 26 26 26 27 27 26 26
Wind_Direction
129 142 152 158 157 154 158 160 155 154 161 174 172 174 164 182 232 221 206 226 274 295 286 278 263 255 252 250 256 249 248 248 245 252 250 250 253 259 265 265 264 267 267
123 129 136 142 151 157 152 144 135 133 152 159 166 176 183 209 253 252 260 273 269 270 284 270 272 265 258 264 259 244 255 257 257 258 255 257 258 261 265 264 264 265 264
122 120 125 128 138 150 152 150 149 146 143 164 185 209 229 253 270 285 293 296 283 272 275 277 274 274 274 272 268 261 259 261 266 264 261 261 262 264 266 268 267 263 263
121 121 126 131 136 144 155 160 162 157 159 194 224 238 243 267 271 292 303 297 289 287 279 279 277 271 279 268 263 263 263 268 271 270 268 267 265 268 272 269 272 267 268
122 121 128 138 146 151 159 167 168 183 205 217 238 261 275 280 277 289 295 294 291 291 282 274 273 277 278 270 265 262 266 269 272 274 273 271 269 271 274 274 273 271 269
127 130 134 128 140 150 158 173 179 210 248 274 290 294 289 294 284 292 296 295 295 292 285 279 280 283 280 275 270 268 270 272 277 278 275 275 273 273 274 275 275 273 273
121 120 122 115 113 118 113 94 143 255 295 315 315 309 304 304 291 291 290 293 294 292 292 290 289 290 287 285 279 276 274 276 278 277 277 277 277 275 276 275 276 273 273
106 100 98 96 83 78 69 49 28 322 309 298 302 308 311 311 307 300 297 297 297 297 292 296 292 293 291 288 285 281 279 278 280 279 278 278 278 277 276 274 277 275 274
86 81 85 84 77 71 61 47 15 1 353 334 320 318 315 319 319 315 312 311 311 308 304 304 299 291 289 289 286 282 282 284 286 284 282 280 280 279 276 275 275 274 275
75 75 77 79 73 60 43 28 11 1 0 357 343 337 334 328 325 321 322 323 320 315 309 304 300 295 291 290 289 288 287 288 288 287 284 286 286 283 279 278 277 276 276
56 58 54 44 42 42 31 13 358 350 349 347 341 333 333 331 327 325 323 318 316 315 311 307 302 300 296 292 290 289 290 290 290 290 286 286 287 286 285 283 280 276 276
46 45 49 46 41 36 23 15 4 349 347 343 338 332 329 331 331 327 321 317 313 311 311 309 303 300 296 293 291 291 290 291 290 289 289 287 288 287 286 283 281 279 277
43 41 41 30 15 3 11 7 355 346 341 338 332 326 325 326 327 325 321 317 311 308 306 305 305 302 298 295 292 291 291 291 292 292 292 291 290 289 287 285 284 285 282
29 33 27 17 10 3 1 355 347 340 334 332 329 323 320 320 321 324 323 319 314 309 305 304 304 302 301 300 298 296 294 291 292 293 292 292 292 291 289 287 285 284 284
21 15 6 358 355 348 340 337 330 327 327 332 330 327 325 321 322 323 323 321 316 310 306 303 302 302 301 298 299 301 299 295 294 293 291 291 291 290 289 291 289 287 284
10 6 357 356 350 345 339 328 322 321 326 329 331 329 325 323 323 320 320 319 316 311 309 307 305 304 301 299 298 299 299 300 298 293 290 291 292 292 292 293 293 292 287
347 356 3 3 356 346 339 338 334 322 319 322 323 324 324 322 322 318 316 315 313 310 307 306 304 302 301 300 300 301 300 299 297 294 293 293 292 292 291 292 292 291 289
328 342 348 346 343 340 336 334 333 329 320 319 321 322 321 319 318 316 314 313 310 308 305 304 303 301 300 300 300 300 299 297 295 294 295 295 294 293 293 293 292 291 289
310 316 323 324 323 321 320 318 319 318 315 312 314 318 320 320 317 315 314 313 311 309 308 307 304 304 302 301 301 302 301 298 296 295 294 294 294 292 293 293 292 291 290
300 299 302 305 309 307 306 307 309 310 310 310 311 312 315 317 319 318 316 314 314 313 311 309 306 305 305 302 302 302 301 299 297 296 295 293 293 293 292 292 292 290 289
290 290 291 295 300 305 306 305 305 306 307 307 307 308 310 312 314 314 314 313 312 312 312 309 307 305 303 302 299 299 300 300 298 297 296 295 294 294 291 291 292 290 290
284 286 286 288 294 299 302 302 302 303 302 303 303 304 306 308 309 309 311 312 313 312 311 309 307 303 300 298 297 296 296 297 295 295 296 296 295 294 291 291 291 290 290
279 281 282 284 288 290 294 297 297 298 299 299 301 302 303 304 306 307 308 309 310 310 309 308 306 304 300 297 296 295 294 295 296 296 296 298 297 295 293 293 292 291 290
275 276 278 279 281 286 289 291 292 294 296 297 298 300 301 302 303 304 305 305 306 307 306 304 304 303 302 299 297 296 296 295 296 297 298 299 298 296 295 294 294 293 292
273 273 275 278 281 284 287 288 289 290 292 294 296 298 299 301 302 303 304 305 306 305 304 303 302 301 300 300 299 298 297 297 298 299 298 298 298 296 295 295 295 293 292
274 273 275 277 280 283 285 286 287 288 290 292 293 296 299 301 301 302 303 304 306 306 304 304 303 301 300 300 299 298 297 296 296 298 298 298 297 297 296 295 294 293 291
Height
5885 5886 5886 5887 5888 5889 5890 5890 5890 5891 5891 5892 5892 5892 5892 5891 5891 5891 5891 5890 5890 5889 5889 5888 5888 5887 5887 5886 5886 5886 5885 5885 5885 5884 5884 5884 5883 5883 5883 5882 5882 5882 5882
5886 5887 5887 5888 5888 5889 5890 5890 5891 5891 5891 5891 5892 5892 5892 5891 5891 5891 5890 5890 5889 5889 5888 5887 5887 5886 5886 5885 5885 5884 5884 5884 5883 5883 5883 5882 5882 5882 5881 5881 5880 5880 5879
5887 5888 5888 5889 5889 5890 5890 5891 5891 5892 5892 5892 5892 5892 5891 5891 5891 5890 5890 5889 5888 5888 5887 5886 5886 5886 5885 5884 5884 5883 5883 5882 5882 5881 5881 5880 5880 5879 5879 5878 5878 5877 5877
5888 5888 5889 5890 5890 5890 5891 5891 5892 5892 5892 5891 5891 5891 5891 5891 5890 5890 5889 5888 5888 5887 5886 5886 5885 5884 5884 5883 5882 5882 5881 5881 5880 5880 5879 5878 5878 5877 5877 5876 5875 5875 5874
5889 5889 5890 5890 5891 5891 5891 5892 5892 5892 5892 5892 5891 5891 5891 5890 5890 5889 5888 5887 5887 5886 5885 5885 5884 5883 5882 5881 5881 5880 5879 5879 5878 5877 5877 5876 5875 5875 5874 5874 5873 5872 5872
5890 5890 5890 5891 5891 5891 5892 5892 5891 5891 5891 5891 5891 5890 5890 5889 5889 5888 5887 5886 5885 5885 5884 5883 5882 5882 5880 5880 5879 5878 5877 5877 5876 5875 5874 5873 5873 5872 5872 5871 5870 5870 5869
5891 5890 5891 5891 5891 5891 5891 5891 5891 5891 5891 5891 5890 5889 5889 5888 5888 5887 5886 5885 5884 5883 5882 5882 5881 5880 5879 5878 5877 5876 5875 5874 5874 5873 5872 5871 5870 5869 5868 5868 5867 5866 5866
5891 5891 5892 5892 5892 5891 5891 5891 5890 5890 5890 5890 5889 5889 5888 5888 5887 5886 5885 5884 5882 5882 5881 5880 5879 5878 5877 5876 5875 5874 5873 5872 5871 5870 5869 5868 5867 5866 5865 5864 5864 5863 5862
5892 5892 5892 5892 5892 5891 5891 5890 5890 5890 5889 5889 5888 5888 5887 5886 5885 5885 5883 5882 5881 5880 5879 5878 5877 5876 5875 5874 5873 5872 5870 5869 5868 5867 5865 5864 5863 5862 5861 5860 5860 5859 5858
5892 5892 5892 5892 5892 5891 5891 5890 5890 5889 5889 5888 5887 5887 5886 5885 5884 5883 5882 5881 5880 5879 5878 5877 5875 5874 5873 5872 5871 5869 5868 5866 5865 5864 5863 5861 5860 5859 5858 5857 5856 5855 5854
5893 5892 5892 5892 5891 5890 5890 5889 5889 5888 5888 5887 5886 5886 5885 5884 5883 5882 5881 5880 5879 5877 5876 5875 5873 5872 5870 5869 5868 5867 5865 5864 5862 5861 5859 5858 5857 5856 5855 5853 5852 5851 5850
5893 5892 5891 5891 5890 5890 5889 5888 5888 5887 5887 5886 5885 5884 5883 5882 5881 5880 5879 5878 5877 5875 5874 5872 5871 5870 5868 5867 5865 5864 5863 5861 5859 5857 5856 5855 5854 5852 5851 5850 5848 5847 5846
5892 5892 5891 5890 5890 5889 5888 5887 5887 5886 5885 5885 5884 5883 5882 5881 5880 5878 5877 5876 5875 5873 5871 5870 5868 5867 5865 5864 5862 5861 5859 5858 5856 5854 5853 5851 5850 5849 5847 5846 5844 5843 5842
5892 5891 5890 5890 5889 5888 5887 5886 5886 5885 5884 5883 5882 5881 5880 5879 5878 5876 5875 5874 5872 5871 5869 5867 5866 5864 5862 5861 5859 5857 5856 5854 5853 5851 5850 5848 5847 5845 5843 5842 5840 5839 5838
5891 5890 5890 5889 5888 5887 5886 5885 5885 5884 5883 5882 5881 5880 5878 5877 5876 5874 5873 5872 5870 5868 5867 5865 5863 5861 5860 5858 5856 5854 5852 5850 5849 5847 5846 5844 5843 5841 5840 5838 5836 5835 5833
5890 5889 5889 5888 5887 5886 5885 5884 5883 5882 5881 5880 5879 5878 5877 5875 5874 5872 5871 5869 5867 5866 5864 5862 5860 5859 5857 5855 5853 5851 5849 5847 5846 5844 5842 5840 5839 5837 5836 5834 5832 5831 5829
5890 5889 5888 5887 5886 5885 5884 5883 5882 5881 5880 5879 5877 5876 5875 5873 5871 5870 5868 5866 5864 5863 5861 5859 5857 5855 5853 5852 5850 5847 5845 5843 5842 5840 5838 5836 5835 5833 5831 5830 5828 5826 5824
5889 5888 5887 5886 5885 5884 5883 5882 5881 5879 5878 5877 5876 5874 5873 5871 5869 5867 5865 5863 5861 5859 5857 5855 5853 5851 5849 5848 5846 5844 5841 5839 5837 5835 5833 5832 5830 5828 5826 5825 5823 5821 5819
5887 5886 5886 5885 5884 5883 5882 5880 5879 5878 5877 5875 5874 5872 5870 5868 5866 5864 5862 5860 5858 5856 5854 5852 5849 5847 5845 5843 5841 5839 5837 5835 5833 5830 5828 5827 5825 5823 5821 5819 5817 5815 5813
5885 5884 5884 5883 5882 5881 5880 5878 5877 5876 5874 5873 5871 5869 5867 5865 5863 5861 5859 5857 5854 5852 5850 5848 5845 5843 5841 5839 5836 5834 5832 5830 5828 5826 5823 5821 5819 5817 5815 5813 5811 5809 5807
5883 5882 5881 5880 5879 5878 5877 5876 5874 5873 5872 5870 5868 5866 5864 5862 5860 5858 5855 5853 5851 5848 5846 5843 5841 5839 5836 5834 5832 5829 5827 5825 5822 5820 5818 5815 5813 5811 5809 5807 5805 5803 5801
5879 5879 5878 5877 5876 5875 5874 5872 5871 5870 5868 5867 5865 5863 5861 5858 5856 5854 5851 5849 5847 5844 5841 5839 5836 5833 5831 5829 5826 5824 5822 5819 5817 5815 5812 5810 5807 5805 5803 5800 5798 5796 5794
5875 5875 5874 5873 5872 5871 5870 5869 5867 5866 5864 5862 5860 5858 5856 5854 5852 5849 5847 5844 5842 5839 5837 5834 5831 5828 5826 5823 5821 5818 5816 5813 5811 5808 5806 5803 5801 5799 5796 5794 5791 5789 5786
5870 5870 5869 5868 5868 5867 5865 5864 5862 5861 5859 5858 5855 5853 5851 5849 5846 5844 5842 5839 5837 5834 5831 5828 5825 5822 5820 5817 5814 5812 5810 5807 5805 5802 5799 5797 5794 5792 5790 5787 5784 5781 5779
5865 5865 5864 5863 5862 5861 5860 5858 5857 5855 5854 5852 5850 5848 5846 5843 5841 5838 5836 5833 5831 5828 5825 5822 5819 5816 5813 5810 5808 5806 5803 5801 5799 5796 5793 5790 5788 5785 5782 5780 5777 5774 5772
5860 5859 5858 5858 5857 5855 5854 5852 5851 5849 5848 5846 5844 5842 5840 5838 5835 5832 5830 5827 5824 5821 5818 5815 5812 5810 5807 5804 5801 5799 5796 5794 5791 5789 5786 5783 5780 5778 5775 5772 5769 5767 5764